Reaktor Hello World
1 43743U 18096AA 21266.48297313 .00003543 00000-0 12703-3 0 9990
2 43743 97.3798 343.2447 0015314 290.7963 69.1636 15.29282040157112
MinXSS-2
1 43758U 18099A 21266.41691706 .00001210 00000-0 11219-3 0 9996
2 43758 97.6593 335.5456 0017136 82.2682 278.0485 14.96189202153167
AO-95
1 43770U 18099N 21266.41245829 .00001062 00000-0 10100-3 0 9994
2 43770 97.6570 334.4004 0016113 90.7250 269.5817 14.95435678153098
RANGE-B
1 43772U 18099Q 21266.42017847 .00001201 00000-0 11257-3 0 9993
2 43772 97.6662 335.5594 0015652 79.0028 281.2953 14.95769555153106
RANGE-A
1 43773U 18099R 21266.42591924 .00000236 00000-0 26511-4 0 9994
2 43773 97.6502 333.6360 0015018 78.7784 281.5124 14.95298890153080
MOVE-II
1 43780U 18099Y 21266.13163532 .00001279 00000-0 11856-3 0 9993
2 43780 97.6589 334.7793 0014841 88.9989 271.2933 14.96102404153077
SNUSat 2
1 43782U 18099AA 21266.42963284 .00000361 00000-0 37555-4 0 9995
2 43782 97.6570 334.7925 0014212 77.7550 282.5262 14.95669665153119
SnugLite
1 43784U 18099AC 21266.42948961 .00000380 00000-0 39113-4 0 9995
2 43784 97.6534 334.4938 0016542 84.3631 275.9476 14.95805094153137
ITASat 1
1 43786U 18099AE 21266.44668809 .00000230 00000-0 25751-4 0 9996
2 43786 97.6588 335.1802 0016515 83.9835 276.3268 14.95712877153137
EAGLET 1
1 43790U 18099AJ 21266.19087738 .00000406 00000-0 41177-4 0 9994
2 43790 97.6576 335.3810 0014857 88.2568 272.0355 14.96052850152822
ESEO
1 43792U 18099AL 21266.45960331 .00000362 00000-0 37445-4 0 9998
2 43792 97.6540 335.1550 0014729 85.0876 275.2027 14.95786711152919
CSIM
1 43793U 18099AM 21266.42462193 .00001242 00000-0 11340-3 0 9992
2 43793 97.6586 335.6866 0014586 81.5368 278.7507 14.96775244152925
Astrocast 0.1
1 43798U 18099AS 21266.45973345 .00000669 00000-0 64179-4 0 9997
2 43798 97.6582 335.8819 0013537 69.4601 290.8072 14.96300513153179
JO-97
1 43803U 18099AX 21266.46059498 .00000853 00000-0 80969-4 0 9999
2 43803 97.6547 334.9356 0016474 84.1922 276.1177 14.95981178153147
Suomi 100
1 43804U 18099AY 21266.46816973 .00001063 00000-0 99770-4 0 9993
2 43804 97.6546 334.9011 0016657 84.3639 275.9481 14.95947624153159
Al Farabi 2
1 43805U 18099AZ 21266.38710139 .00000390 00000-0 39572-4 0 9998
2 43805 97.6560 335.0977 0016417 83.8004 276.5118 14.96192435153150
CHOMPTT
1 43855U 18104G 21266.60772300 .00002853 00000-0 11457-3 0 9990
2 43855 85.0374 228.4230 0018530 137.6362 222.6316 15.24313638154042
ISAT
1 43879U 18111D 21266.87353923 .00000309 00000-0 31995-4 0 9993
2 43879 97.6747 172.3563 0013771 129.4006 230.8451 14.96753807147770
UWE-4
1 43880U 18111E 21266.71252050 .00000378 00000-0 37857-4 0 9996
2 43880 97.6780 172.7320 0013165 128.9983 231.2413 14.96994025147782
Sparrow
1 43881U 18111F 21266.54573865 .00001030 00000-0 94282-4 0 9999
2 43881 97.6780 172.7197 0013521 128.7298 231.5135 14.97048341149764
Lume 1
1 43908U 18111AJ 21266.66155402 .00003310 00000-0 12843-3 0 9990
2 43908 97.2191 158.1854 0018722 306.6591 53.2927 15.26637227152655
FO-98
1 43933U 19003B 21266.38439005 .00024533 00000-0 84970-3 0 9992
2 43933 97.1753 304.2600 0015957 51.5968 308.6703 15.29717403149068
FO-99
1 43937U 19003F 21266.35547273 .00003566 00000-0 13940-3 0 9992
2 43937 97.1676 305.5952 0023613 29.4894 330.7672 15.26227451149191
MYSat 1
1 44045U 18092F 21266.49196144 .00008591 00000-0 21323-3 0 9999
2 44045 51.6372 307.3732 0009164 200.8548 159.2064 15.41148997146574
AstroCast 0.2
1 44083U 19018F 21266.67927480 .00002986 00000-0 12986-3 0 9992
2 44083 97.3630 325.8927 0012321 355.2268 4.8849 15.22975661137845
AISTechSat 3
1 44103U 19018AB 21266.75381176 .00001685 00000-0 71544-4 0 9991
2 44103 97.3498 326.3947 0013081 5.2409 114.7444 15.24385015137988
AISat 1
1 44104U 19018AC 21266.49749591 .00002164 00000-0 68383-4 0 9992
2 44104 97.4196 344.0176 0056320 8.0224 352.1905 15.32423827138686
Raavana-1
1 44329U 98067QE 21266.01356472 .00499227 12520-3 77321-3 0 9996
2 44329 51.6271 135.0467 0006495 242.6467 117.3884 16.03549379129648
Uguisu
1 44330U 98067QF 21266.02457781 .00354004 63953-4 68641-3 0 9999
2 44330 51.6223 136.4942 0005552 238.4723 121.5744 15.99763217129602
NepaliSat-1
1 44331U 98067QG 21266.33621483 .00522100 13540-3 83663-3 0 9997
2 44331 51.6229 133.3261 0006324 244.5661 115.4696 16.02981080129687
Prox-1
1 44339U 19036A 21266.19105432 .00001427 00000-0 28428-3 0 9995
2 44339 24.0005 78.5651 0010718 171.7127 188.3542 14.53755318119409
Oculus-ASR
1 44348U 19036K 21266.52121876 .00017425 00000-0 22715-3 0 9990
2 44348 28.5128 199.8969 0318896 250.7540 105.8294 15.14991731123781
Armadillo
1 44352U 19036P 21266.40717372 .00029913 00000-0 35437-3 0 9994
2 44352 28.5284 171.1931 0282163 295.3243 61.8380 15.24336371124011
NO-104
1 44354U 19036R 21266.11854678 .00017066 00000-0 21643-3 0 9995
2 44354 28.5292 194.3190 0313504 257.5263 99.0087 15.16616341123804
NO-103
1 44355U 19036S 21266.29639735 .00059142 -53798-5 57217-3 0 9995
2 44355 28.5251 130.1846 0238047 1.9723 358.1774 15.36562965124465
CP9
1 44360U 19036X 21266.55280155 .00305844 21773-4 11473-2 0 9990
2 44360 28.4965 31.4663 0111905 162.8543 197.5888 15.77191564125316
Move-IIb
1 44398U 19038N 21266.86227181 .00002891 00000-0 16144-3 0 9990
2 44398 97.5929 230.5057 0023553 334.6285 25.3799 15.14119447122650
SONATE
1 44400U 19038Q 21266.88039588 .00001381 00000-0 82136-4 0 9996
2 44400 97.5994 230.3093 0024199 335.0218 24.9841 15.12747629122618
BeeSat 9
1 44412U 19038AC 21266.45544241 .00002976 00000-0 16868-3 0 9998
2 44412 97.5987 230.2408 0021448 341.1248 18.9185 15.13605202122274
JAISAT-1
1 44419U 19038F 21266.45991741 .00002917 00000-0 16325-3 0 9999
2 44419 97.5990 230.8704 0020263 339.2516 20.7890 15.14091106122626
LightSail-2
1 44420U 19036AC 21266.72145194 .00012715 00000-0 25162-2 0 9997
2 44420 24.0061 48.1169 0013099 239.9708 119.9485 14.60564995117991
Taurus 1
1 44530U 19059C 21266.76896171 .00000482 00000-0 14719-3 0 9991
2 44530 98.5516 357.9557 0013748 199.9861 160.0798 14.46186733107292
Duchifat 3
1 44854U 19089C 21266.60809834 .00000684 00000-0 60842-4 0 9999
2 44854 36.9665 240.1136 0008234 220.9975 139.0153 14.99634209 97847
OPS-SAT
1 44878U 19092F 21266.56075759 .00002016 00000-0 10583-3 0 9992
2 44878 97.4779 88.6610 0013415 183.0280 177.0875 15.16804926 97701
TO-108
1 44881U 19093C 21266.74052772 .00000094 00000-0 18760-4 0 9997
2 44881 97.9188 344.4743 0014610 338.8984 21.1628 14.81482304 95282
FloripaSat 1
1 44885U 19093G 21266.70366977 .00000352 00000-0 50622-4 0 9992
2 44885 97.9209 345.1735 0014075 346.8137 13.2707 14.82382553 95324
RS-44
1 44909U 19096E 21266.51106823 .00000007 00000-0 -11297-4 0 9996
2 44909 82.5224 47.6421 0216800 223.6536 134.7239 12.79711111 81367
SwampSat-2
1 45115U 19071E 21266.50484396 .00285238 00000-0 20984-2 0 9993
2 45115 51.6291 242.3455 0004661 47.2673 312.8717 15.71645797 92757
HO-107
1 45119U 19071J 21266.45539467 .00006318 00000-0 18466-3 0 9994
2 45119 51.6404 281.4431 0010456 287.2227 72.7611 15.36561696 92239
Phoenix
1 45258U 98067RB 21266.52366938 .00022423 00000-0 28884-3 0 9999
2 45258 51.6383 197.4097 0003932 253.0199 107.0363 15.58936400 90498
AztechSat-1
1 45261U 98067RE 21266.17954276 .00090557 00000-0 61917-3 0 9999
2 45261 51.6328 180.0153 0002140 248.2143 111.8628 15.74029419 90721
QARMAN
1 45263U 98067RG 21266.41058616 .00052225 00000-0 48139-3 0 9992
2 45263 51.6364 187.6378 0002856 262.8434 97.2238 15.67088433 90675
